Regional Weather Roundup
Issued by NWS

Home | Current Version | Previous Version | Text Only | Print | Product List | Glossary Off
Versions: 1 2 3 4 5 6 7 8 9 10 11 12 13 14 15 16 17 18 19 20 21 22 23 24 25 26 27 28 29 30 31 32 33 34 35 36 37 38 39 40 41 42 43 44 45 46 47 48 49 50

000
ASUS43 KLMK 192010
RWRKY
KENTUCKY REGIONAL WEATHER ROUNDUP
NATIONAL WEATHER SERVICE LOUISVILLE KY
300 PM EST FRI DEC 19 2014

NOTE "FAIR" INDICATES FEW OR NO CLOUDS BELOW 12,000 FEET
WITH NO SIGNIFICANT WEATHER AND/OR OBSTRUCTIONS TO VISIBILITY.

KYZ001>023-026-027-061>063-070>075-192100-
WESTERN AND SOUTH CENTRAL KENTUCKY

CITY           SKY/WX    TMP DP  RH WIND       PRES   REMARKS
PADUCAH        CLOUDY    41  29  62 CALM      30.27F
HENDERSON      MOSUNNY   37  25  60 W5        30.30R WCI  34
OWENSBORO      MOSUNNY   38  25  60 VRB5      30.29R WCI  34
HOPKINSVILLE   CLOUDY    38  28  67 VRB1      30.27R
BOWLING GREEN  PTSUNNY   40  26  57 VRB3      30.27R
GLASGOW        PTSUNNY   38  26  61 CALM      30.25R
$$

KYZ024-025-028>034-038-045-046-053-192100-
NORTH CENTRAL KENTUCKY

CITY           SKY/WX    TMP DP  RH WIND       PRES   REMARKS
LOUISVILLE/SDF CLOUDY    36  23  59 N7        30.24F WCI  30
LOUISVILLE/LOU PTSUNNY   35  23  61 VRB5      30.25F WCI  31
FORT KNOX      PTSUNNY   36  25  64 N3        30.24R
$$

KYZ035>037-039>044-047>052-055>060-089>105-192100-
NORTHEAST KENTUCKY

CITY           SKY/WX    TMP DP  RH WIND       PRES   REMARKS
LEXINGTON      PTSUNNY   33  23  66 NE6       30.22F WCI  28
COVINGTON      CLOUDY    30  19  63 CALM      30.25S
FRANKFORT      PTSUNNY   33  21  61 NE3       30.22F
$$

KYZ054-064>069-076>088-106>120-192100-
SOUTHEAST KENTUCKY

CITY           SKY/WX    TMP DP  RH WIND       PRES   REMARKS
JACKSON        CLOUDY    38  23  55 CALM      30.18F
LONDON         CLOUDY    40  25  55 NW5       30.18F
SOMERSET       PTSUNNY   37  27  65 CALM      30.22R
MIDDLESBORO    CLOUDY    43  27  54 N6        30.17S
MONTICELLO     CLOUDY    40  28  62 CALM      30.24R
$$




USA.gov is the U.S. government's official web portal to all federal, state and local government web resources and services.